• In Hungary
  • List of Countries
  • For 7 days
  • Water Temperature
  • Satellite Maps
  • Weather Map
  • News
  • Weather Widgets
  • user-avatar
    Login

    Hourly Weather Novokizganovo

    Today, 25 May, Friday

    Time Temperature Precipitation Wind Pressure Humidity
    00:00 +14°C° 0 mm 3 mps 752 mmHg 85%
    01:00 +13°C° 0 mm 3 mps 751 mmHg 85%
    02:00 +12°C° 0.1 mm 3 mps 751 mmHg 84%
    03:00 +12°C° 0.1 mm 3 mps 751 mmHg 83%
    04:00 +11°C° 0.1 mm 4 mps 751 mmHg 82%
    05:00 +11°C° 0.2 mm 4 mps 751 mmHg 82%
    06:00 +10°C° 0.2 mm 4 mps 751 mmHg 82%
    07:00 +10°C° 0.2 mm 4 mps 751 mmHg 82%
    08:00 +10°C° 0.1 mm 4 mps 751 mmHg 78%
    09:00 +10°C° 0.1 mm 4 mps 751 mmHg 74%
    10:00 +10°C° 0.1 mm 4 mps 751 mmHg 70%
    11:00 +11°C° 0 mm 4 mps 751 mmHg 65%
    12:00 +12°C° 0 mm 4 mps 751 mmHg 59%
    13:00 +13°C° 0 mm 4 mps 751 mmHg 54%
    14:00 +13°C° 0 mm 5 mps 751 mmHg 51%
    15:00 +13°C° 0 mm 6 mps 752 mmHg 49%
    16:00 +13°C° 0 mm 6 mps 752 mmHg 47%
    17:00 +11°C° 0 mm 6 mps 752 mmHg 49%
    18:00 +10°C° 0 mm 5 mps 752 mmHg 52%
    19:00 +9°C° 0 mm 5 mps 752 mmHg 55%
    20:00 +8°C° 0 mm 5 mps 753 mmHg 54%
    21:00 +7°C° 0 mm 5 mps 753 mmHg 54%
    22:00 +6°C° 0 mm 5 mps 753 mmHg 53%
    23:00 +5°C° 0 mm 5 mps 754 mmHg 54%

    Tomorrow, 26 May, Saturday

    Time Temperature Precipitation Wind Pressure Humidity
    00:00 +5°C° 0 mm 5 mps 754 mmHg 54%
    01:00 +5°C° 0 mm 5 mps 754 mmHg 55%
    02:00 +3°C° 0 mm 5 mps 755 mmHg 55%
    03:00 +2°C° 0 mm 5 mps 755 mmHg 55%
    04:00 +2°C° 0 mm 5 mps 756 mmHg 55%
    05:00 +2°C° 0 mm 6 mps 756 mmHg 54%
    06:00 +3°C° 0 mm 6 mps 757 mmHg 54%
    07:00 +3°C° 0 mm 7 mps 757 mmHg 54%
    08:00 +4°C° 0 mm 7 mps 758 mmHg 52%
    09:00 +6°C° 0 mm 7 mps 758 mmHg 49%
    10:00 +8°C° 0 mm 7 mps 758 mmHg 47%
    11:00 +9°C° 0 mm 7 mps 758 mmHg 45%
    12:00 +9°C° 0 mm 7 mps 758 mmHg 43%
    13:00 +10°C° 0 mm 7 mps 759 mmHg 42%
    14:00 +10°C° 0 mm 7 mps 759 mmHg 41%
    15:00 +11°C° 0 mm 6 mps 759 mmHg 41%
    16:00 +11°C° 0 mm 6 mps 759 mmHg 40%
    17:00 +12°C° 0 mm 5 mps 759 mmHg 45%
    18:00 +11°C° 0 mm 4 mps 759 mmHg 50%
    19:00 +11°C° 0 mm 3 mps 759 mmHg 54%
    20:00 +9°C° 0 mm 3 mps 759 mmHg 56%
    21:00 +8°C° 0 mm 2 mps 760 mmHg 59%
    22:00 +6°C° 0 mm 2 mps 760 mmHg 61%
    23:00 +6°C° 0 mm 2 mps 760 mmHg 61%

    Day after tomorrow, 27 May, Sunday

    Time Temperature Precipitation Wind Pressure Humidity
    00:00 +6°C° 0 mm 2 mps 760 mmHg 62%
    01:00 +6°C° 0 mm 2 mps 760 mmHg 63%
    02:00 +5°C° 0 mm 3 mps 760 mmHg 62%
    03:00 +5°C° 0 mm 3 mps 759 mmHg 62%
    04:00 +5°C° 0 mm 3 mps 759 mmHg 61%
    05:00 +6°C° 0 mm 4 mps 759 mmHg 62%
    06:00 +7°C° 0 mm 5 mps 758 mmHg 62%
    07:00 +8°C° 0 mm 6 mps 758 mmHg 63%
    08:00 +10°C° 0.1 mm 7 mps 757 mmHg 62%
    09:00 +12°C° 0.1 mm 7 mps 757 mmHg 61%
    10:00 +13°C° 0.1 mm 8 mps 756 mmHg 61%
    11:00 +16°C° 0 mm 9 mps 755 mmHg 59%
    12:00 +18°C° 0 mm 9 mps 754 mmHg 58%
    13:00 +19°C° 0 mm 10 mps 753 mmHg 56%
    14:00 +19°C° 0.4 mm 10 mps 753 mmHg 59%
    15:00 +19°C° 0.4 mm 10 mps 752 mmHg 61%
    16:00 +19°C° 0.4 mm 10 mps 751 mmHg 64%
    17:00 +18°C° 1.1 mm 9 mps 751 mmHg 71%
    18:00 +16°C° 1.1 mm 8 mps 751 mmHg 78%
    19:00 +15°C° 1.1 mm 7 mps 750 mmHg 85%
    20:00 +14°C° 0.9 mm 6 mps 750 mmHg 88%
    21:00 +14°C° 0.9 mm 5 mps 749 mmHg 91%
    22:00 +13°C° 0.9 mm 4 mps 749 mmHg 93%
    23:00 +12°C° 1.2 mm 5 mps 748 mmHg 93%

    28 May, Monday

    Time Temperature Precipitation Wind Pressure Humidity
    00:00 +10°C° 1.2 mm 6 mps 748 mmHg 93%
    01:00 +9°C° 1.2 mm 6 mps 747 mmHg 92%
    02:00 +8°C° 1.9 mm 6 mps 747 mmHg 92%
    03:00 +7°C° 1.9 mm 5 mps 747 mmHg 93%
    04:00 +6°C° 1.9 mm 4 mps 747 mmHg 93%
    05:00 +7°C° 0.4 mm 4 mps 747 mmHg 89%
    06:00 +7°C° 0.4 mm 5 mps 748 mmHg 84%
    07:00 +8°C° 0.4 mm 5 mps 748 mmHg 80%
    08:00 +9°C° 0.4 mm 6 mps 749 mmHg 74%
    09:00 +9°C° 0.4 mm 6 mps 749 mmHg 69%
    10:00 +10°C° 0.4 mm 7 mps 749 mmHg 63%
    11:00 +10°C° 0.2 mm 7 mps 749 mmHg 61%
    12:00 +10°C° 0.2 mm 8 mps 749 mmHg 58%
    13:00 +10°C° 0.2 mm 8 mps 750 mmHg 55%
    14:00 +10°C° 0.2 mm 8 mps 750 mmHg 54%
    15:00 +9°C° 0.2 mm 8 mps 750 mmHg 52%
    16:00 +9°C° 0.2 mm 8 mps 750 mmHg 51%
    17:00 +8°C° 0.1 mm 7 mps 751 mmHg 55%
    18:00 +8°C° 0.1 mm 6 mps 751 mmHg 59%
    19:00 +7°C° 0.1 mm 5 mps 752 mmHg 63%
    20:00 +6°C° 0 mm 5 mps 752 mmHg 65%
    21:00 +5°C° 0 mm 4 mps 752 mmHg 67%
    22:00 +4°C° 0 mm 4 mps 752 mmHg 69%
    23:00 +3°C° 0 mm 4 mps 752 mmHg 70%

    29 May, Tuesday

    Time Temperature Precipitation Wind Pressure Humidity
    00:00 +3°C° 0 mm 4 mps 752 mmHg 71%
    01:00 +1°C° 0 mm 4 mps 752 mmHg 72%
    02:00 +1°C° 0 mm 4 mps 753 mmHg 73%
    03:00 +1°C° 0 mm 4 mps 753 mmHg 75%
    04:00 0°C° 0 mm 4 mps 753 mmHg 76%
    05:00 +1°C° 0 mm 5 mps 753 mmHg 74%
    06:00 +3°C° 0 mm 5 mps 753 mmHg 71%
    07:00 +4°C° 0 mm 6 mps 753 mmHg 69%
    08:00 +4°C° 0.1 mm 6 mps 753 mmHg 65%
    09:00 +5°C° 0.1 mm 6 mps 753 mmHg 62%
    10:00 +6°C° 0.1 mm 7 mps 753 mmHg 59%
    11:00 +6°C° 0.2 mm 7 mps 752 mmHg 57%
    12:00 +8°C° 0.2 mm 7 mps 752 mmHg 56%
    13:00 +8°C° 0.2 mm 7 mps 752 mmHg 55%
    14:00 +9°C° 0.1 mm 6 mps 752 mmHg 54%
    15:00 +9°C° 0.1 mm 6 mps 752 mmHg 53%
    16:00 +9°C° 0.1 mm 6 mps 752 mmHg 52%
    17:00 +9°C° 0 mm 5 mps 752 mmHg 56%
    18:00 +8°C° 0 mm 4 mps 752 mmHg 60%
    19:00 +9°C° 0 mm 2 mps 752 mmHg 64%
    20:00 +7°C° 0 mm 2 mps 752 mmHg 66%
    21:00 +7°C° 0 mm 1 mps 752 mmHg 69%
    22:00 +4°C° 0 mm 0 mps 752 mmHg 72%
    23:00 +5°C° 0 mm 1 mps 751 mmHg 72%

    30 May, Wednesday

    Time Temperature Precipitation Wind Pressure Humidity
    00:00 +5°C° 0 mm 1 mps 751 mmHg 73%
    01:00 +4°C° 0 mm 2 mps 750 mmHg 73%
    02:00 +4°C° 0 mm 2 mps 750 mmHg 75%
    03:00 +3°C° 0 mm 3 mps 749 mmHg 77%
    04:00 +3°C° 0 mm 3 mps 748 mmHg 79%
    05:00 +4°C° 0.3 mm 4 mps 747 mmHg 83%
    06:00 +4°C° 0.3 mm 4 mps 746 mmHg 87%
    07:00 +5°C° 0.3 mm 5 mps 745 mmHg 90%
    08:00 +5°C° 0.9 mm 5 mps 744 mmHg 91%
    09:00 +4°C° 0.9 mm 6 mps 743 mmHg 92%
    10:00 +5°C° 0.9 mm 6 mps 742 mmHg 93%
    11:00 +7°C° 0.6 mm 6 mps 741 mmHg 92%
    12:00 +8°C° 0.6 mm 5 mps 741 mmHg 90%
    13:00 +9°C° 0.6 mm 5 mps 740 mmHg 88%
    14:00 +10°C° 0.4 mm 6 mps 740 mmHg 86%
    15:00 +11°C° 0.4 mm 6 mps 740 mmHg 83%
    16:00 +12°C° 0.4 mm 7 mps 741 mmHg 81%
    17:00 +11°C° 0.1 mm 6 mps 741 mmHg 80%
    18:00 +12°C° 0.1 mm 5 mps 741 mmHg 80%
    19:00 +12°C° 0.1 mm 3 mps 741 mmHg 80%
    20:00 +11°C° 0.2 mm 3 mps 741 mmHg 84%
    21:00 +9°C° 0.2 mm 2 mps 741 mmHg 87%
    22:00 +8°C° 0.2 mm 2 mps 741 mmHg 90%
    23:00 +8°C° 0.6 mm 2 mps 740 mmHg 92%
    Show more